Location: Sungai Anya
(2.6167°N, 114.0500°E)
Time: 20:08:31
(UTC+00:00)

Cosmos 1153 Rocket - Pass Details

Date: 07 June 2022
Orbit: 954 x 1005 km, 82.9° (Epoch: 02 July)

Event Time Altitude Azimuth Distance (km) Brightness Sun altitude
Rises 21:41:49 0° 335° (NNW) 3,718 7.5 -8.4°
Reaches altitude 10° 21:44:44 10° 323° (NW) 2,767 6.7 -7.7°
Maximum altitude 21:49:56 27° 268° (W) 1,811 5.4 -6.5°
Drops below altitude 10° 21:55:09 10° 212° (SSW) 2,755 6.4 -5.3°
Sets 21:58:04 0° 200° (SSW) 3,698 7.1 -4.7°
